CW5272 Weather Reports


Display with metric or nautical units.
time (UTC)temp
F
wind
direction
speed
MPH
gust
MPH
rain 1hr
in
rain 24hr
in
rain mn
in
humidity
%
barometer
mb
20180420005256 56 294 3.0 17.0 0.00 0.00 0.00 66 1017.8
20180420003316 56 287 9.0 15.0 0.00 0.00 0.00 65 1017.9
20180420002256 57 258 3.0 14.0 0.00 0.00 0.00 65 1017.8
20180420000255 59 350 3.0 16.0 0.00 0.00 0.00 61 1017.8
20180419235255 58 232 8.0 17.0 0.00 0.00 0.00 62 1017.4
20180419231255 61 263 3.0 13.0 0.00 0.00 0.00 56 1017.5
20180419230255 60 258 3.0 12.0 0.00 0.00 0.00 58 1017.5
20180419225255 60 308 4.0 13.0 0.00 0.00 0.00 56 1017.7
20180419223255 61 255 11.0 14.0 0.00 0.00 0.00 54 1017.7
20180419221254 60 281 9.0 17.0 0.00 0.00 0.00 49 1017.8
20180419220254 60 285 10.0 10.0 0.00 0.00 0.00 50 1017.8
20180419211254 61 333 5.0 14.0 0.00 0.00 0.00 52 1017.6
20180419205254 61 253 3.0 10.0 0.00 0.00 0.00 54 1017.7
20180419204254 61 315 4.0 11.0 0.00 0.00 0.00 49 1017.7
20180419202253 63 240 5.0 11.0 0.00 0.00 0.00 50 1017.7
20180419195253 60 249 10.0 11.0 0.00 0.00 0.00 41 1017.7
20180419192253 60 271 1.0 15.0 0.00 0.00 0.00 44 1017.9
20180419191253 60 24 3.0 15.0 0.00 0.00 0.00 47 1017.9
20180419185253 60 264 3.0 15.0 0.00 0.00 0.00 59 1018.0
20180419183253 60 255 1.0 3.0 0.00 0.00 0.00 60 1017.9
20180419182253 59 271 4.0 5.0 0.00 0.00 0.00 62 1017.9
20180419180252 56 250 3.0 5.0 0.00 0.00 0.00 67 1017.9
20180419175252 56 205 1.0 5.0 0.00 0.00 0.00 63 1017.9
20180419173252 54 242 0.0 3.0 0.00 0.00 0.00 69 1017.9
20180419172252 53 303 2.0 5.0 0.00 0.00 0.00 71 1017.8
20180419171252 53 253 0.0 4.0 0.00 0.00 0.00 73 1017.8
20180419170252 52 252 3.0 3.0 0.00 0.00 0.00 72 1017.8
20180419165252 52 252 4.0 5.0 0.00 0.00 0.00 75 1017.7
20180419164252 51 221 2.0 5.0 0.00 0.00 0.00 76 1017.6
20180419161251 49 256 4.0 5.0 0.00 0.00 0.00 78 1017.5
20180419160251 49 276 3.0 5.0 0.00 0.00 0.00 78 1017.5
20180419155251 48 256 1.0 10.0 0.00 0.00 0.00 80 1017.6
20180419152251 46 281 4.0 10.0 0.00 0.00 0.00 86 1017.4
20180419150251 45 268 3.0 8.0 0.00 0.00 0.00 87 1017.3
20180419144250 44 223 1.0 10.0 0.00 0.00 0.00 92 1017.3
20180419135251 41 284 4.0 10.0 0.00 0.00 0.00 93 1016.6
20180419134250 41 296 4.0 10.0 0.00 0.00 0.00 93 1016.6
20180419133250 41 288 2.0 10.0 0.00 0.00 0.00 93 1016.6
20180419131250 41 263 5.0 12.0 0.00 0.00 0.00 93 1016.1
20180419130250 41 265 10.0 10.0 0.00 0.00 0.00 93 1016.1
20180419125250 41 266 9.0 13.0 0.00 0.00 0.00 93 1015.9
20180419120250 40 280 3.0 5.0 0.00 0.00 0.00 92 1015.8
20180419114250 41 275 3.0 6.0 0.00 0.00 0.00 92 1015.9
20180419113250 41 268 1.0 3.0 0.00 0.00 0.00 92 1015.9
20180419111250 41 291 0.0 3.0 0.00 0.00 0.00 90 1016.0
20180419105250 41 273 4.0 8.0 0.00 0.00 0.00 89 1015.9
20180419104250 41 289 2.0 4.0 0.00 0.00 0.00 87 1016.0
20180419103249 41 288 2.0 3.0 0.00 0.00 0.00 88 1016.0
20180419101249 42 284 4.0 8.0 0.00 0.00 0.00 87 1015.5
20180419100249 42 292 1.0 8.0 0.00 0.00 0.00 87 1015.5
20180419094249 42 284 2.0 6.0 0.00 0.00 0.00 85 1015.6
20180419084249 43 28 4.0 6.0 0.00 0.00 0.00 75 1015.5
20180419083249 43 306 3.0 3.0 0.00 0.00 0.00 74 1015.5
20180419082249 43 318 2.0 4.0 0.00 0.00 0.00 73 1015.5
20180419080249 43 295 1.0 3.0 0.00 0.00 0.00 75 1015.5
20180419075249 44 348 2.0 4.0 0.00 0.00 0.00 72 1015.4
20180419071249 44 236 1.0 3.0 0.00 0.00 0.00 75 1015.5
20180419063249 44 284 3.0 4.0 0.00 0.00 0.00 72 1015.2
20180419062249 44 296 2.0 5.0 0.00 0.00 0.00 70 1015.2
20180419055249 45 296 3.0 5.0 0.00 0.00 0.00 68 1015.3
20180419054249 45 261 0.0 6.0 0.00 0.00 0.00 68 1015.3
20180419052249 45 271 0.0 3.0 0.00 0.00 0.00 64 1015.2
20180419051249 46 265 2.0 3.0 0.00 0.00 0.00 64 1015.4
20180419044249 46 283 0.0 6.0 0.00 0.00 0.00 61 1015.0
20180419043249 46 275 0.0 6.0 0.00 0.00 0.00 62 1015.0
20180419035248 46 240 0.0 3.0 0.00 0.00 0.00 66 1014.9
20180419033248 46 288 3.0 6.0 0.00 0.00 0.00 66 1014.8
20180419024249 49 288 0.0 10.0 0.00 0.00 0.00 62 1014.5
20180419022249 51 248 0.0 1.0 0.00 0.00 0.00 61 1014.4
20180419021248 52 248 2.0 4.0 0.00 0.00 0.00 58 1014.3
20180419015248 53 226 0.0 3.0 0.00 0.00 0.00 54 1014.3
20180419014248 54 273 2.0 4.0 0.00 0.00 0.00 50 1014.5
20180419013248 54 296 1.0 4.0 0.00 0.00 0.00 44 1014.5